Accueil
METAR-TAF:

METAR-TAF

Aéroports :

Meiringen, Suisse

latitude: 46-44-25N, longitude: 8-06-36E, altitude: 577 m

Observation

Le bulletin a été fait il y a 18 minutes, à 11:20 UTC
Vent 7 kt de direction variable avec des rafales jusqu'à 17 kt
Température 9°C
Humidité 57%
Pression 1017 hPa
Visibilité 10 km ou plus
Quelques nuages à une hauteur de 5900 ft
Nuages épars à une hauteur de 7500 ft

METAR: LSMM 181120Z AUTO VRB07G17KT 9999NDV FEW059 SCT075 09/01 Q1017 RMK

Heure: 13:38 (11:38 UTC)


TAF: absent

Observations et prévisions météorologiques de plus de 4000 aéroports (messages METAR et TAF).

Les stations disponibles sont représentées par des disques jaunes et rouges sur la carte.

Passer la souris dessus pour voir le nom de la station.

Cliquer dessus pour voir les observations et prévisions météorologiques.

Pour changer de carte: cliquez sur les boutons verts avec une croix noire pour zoomer, sur le bouton vert avec un tiret pour effectuer un zoom arrière, ou sur les flèches vertes pour les cartes adjacentes.


METAR-TAF: